Regional Weather Roundup
Issued by NWS

Home | Current Version | Previous Version | Text Only | Print | Product List | Glossary On
Versions: 1 2 3 4 5 6 7 8 9 10 11 12 13 14 15 16 17 18 19 20 21 22 23 24 25 26 27
000
ASUS44 KLIX 192313
RWRLA
LOUISIANA WEATHER ROUNDUP
NATIONAL WEATHER SERVICE NEW ORLEANS LA
600 PM CDT TUE SEP 19 2017

NOTE: "FAIR" INDICATES FEW OR NO CLOUDS BELOW 12,000 FEET WITH NO
      SIGNIFICANT WEATHER AND/OR OBSTRUCTIONS TO VISIBILITY.
      SKY/WX - SKY CONDITION AND SIGNIFICANT WEATHER.
      TMP - AIR TEMPERATURE.    DP   - DEWPOINT TEMPERATURE.
      RH  - RELATIVE HUMIDITY.  PRES - PRESSURE.
      HX  - HEAT INDEX.         WCI  - WIND CHILL INDEX.

*  THESE STATIONS ARE NOT NWS OR FAA STATIONS AND ARE NOT UNDER
   NWS QUALITY CONTROL.

LAZ040-048-061>063-065-066-069-200000-
SOUTHEAST LOUISIANA

CITY           SKY/WX    TMP DP  RH WIND       PRES   REMARKS
N.O. INTL ARPT PTSUNNY   85  73  67 S7        29.92S
N.O. LAKEFRONT MOSUNNY   84  72  67 S5        29.93S
N.O. DOWNTOWN* FAIR      84  75  74 CALM      29.93F
RESERVE*       MOCLDY    84  74  72 S9        29.92R
SLIDELL        SUNNY     88  72  58 S9        29.91S
BATON ROUGE    PTSUNNY   88  71  57 W8        29.90R
BOOTHVILLE     MOSUNNY   86  74  67 SW9       29.94S
BELLE CHASSE   NOT AVBL
BOGALUSA*      FAIR      89  71  55 SW5       29.92S HX  95
GALLIANO*      PTCLDY    85  72  63 S8        29.93S
NEW ROADS*     FAIR      88  73  60 SW6       29.91R HX  95
GONZALES*      FAIR      87  73  62 W3        29.90S HX  95
HAMMOND*       CLOUDY    88  70  55 SE3       29.90S
HOUMA*         MOSUNNY   84  73  70 S6        29.93R
PORT FOURCHON* PTCLDY    84  73  70 S8        29.94F

$$

LAZ041-044-053-054-200000-
SOUTHWEST LOUISIANA

CITY           SKY/WX    TMP DP  RH WIND       PRES   REMARKS
LAKE CHARLES   MOSUNNY   85  74  69 S7        29.90S
LAFAYETTE      CLOUDY    88  74  63 S10       29.91S HX  96
PATTERSON      MOSUNNY   85  75  72 S9        29.93S
SALT POINT       N/A     86  74  67 CALM      29.91S
NEW IBERIA     CLOUDY    87  68  52 S9        29.92S
CHENAULT AIRPK MOSUNNY   86  73  66 S8        29.90F

$$

LAZ027-028-200000-
CENTRAL LOUISIANA

CITY           SKY/WX    TMP DP  RH WIND       PRES   REMARKS
FORT POLK      CLOUDY    84  76  76 SE7       29.88F
ALEXANDRIA INT CLOUDY    85  72  65 S8        29.87F
ALEXANDRIA     PTSUNNY   86  75  69 S3        29.89S HX  95

$$

LAZ001-002-200000-
NORTHWEST LOUISIANA

CITY           SKY/WX    TMP DP  RH WIND       PRES   REMARKS
SHREVEPORT     MOSUNNY   88  75  65 S12       29.85F HX  97
BARKSDALE AFB  MOSUNNY   89  72  57 S9        29.85F HX  96
DTN SHREVEPORT MOSUNNY   90  73  57 S12       29.85F HX  98

$$

LAZ014-016-200000-
NORTHEAST LOUISIANA

CITY           SKY/WX    TMP DP  RH WIND       PRES   REMARKS
MONROE         MOSUNNY   89  71  55 S6        29.89F HX  95
TALLULAH       SUNNY     87  70  56 VRB3      29.89F

$$





USA.gov is the U.S. government's official web portal to all federal, state and local government web resources and services.